| time (UTC) | temp F | wind direction | speed MPH | gust MPH | rain 1hr in | rain 24hr in | rain mn in | humidity % | barometer mb |
| 20260906100033 | 80 | 171 | 0.0 | 0.0 | 0.00 | 0.00 | 0.00 | 77 | 1010.7 |
| 20260906094530 | 80 | 171 | 0.0 | 2.0 | 0.00 | 0.00 | 0.00 | 76 | 1010.6 |
| 20260906093029 | 81 | 171 | 0.0 | 2.0 | 0.00 | 0.00 | 0.00 | 75 | 1010.4 |
| 20260906091533 | 81 | 171 | 0.0 | 4.0 | 0.00 | 0.00 | 0.00 | 75 | 1010.3 |
| 20260906090026 | 81 | 171 | 2.0 | 5.0 | 0.00 | 0.00 | 0.00 | 75 | 1010.2 |
| 20260906084530 | 81 | 171 | 1.0 | 5.0 | 0.00 | 0.00 | 0.00 | 74 | 1010.2 |
| 20260906083023 | 82 | 158 | 2.0 | 6.0 | 0.00 | 0.00 | 0.00 | 74 | 1010.1 |
| 20260906081524 | 82 | 158 | 2.0 | 6.0 | 0.00 | 0.00 | 0.00 | 74 | 1010.1 |
| 20260906080018 | 82 | 168 | 3.0 | 5.0 | 0.00 | 0.00 | 0.00 | 73 | 1010.4 |
| 20260906061544 | 84 | 178 | 2.0 | 5.0 | 0.00 | 0.00 | 0.00 | 70 | 1010.7 |
| 20260906054539 | 85 | 161 | 2.0 | 6.0 | 0.00 | 0.00 | 0.00 | 69 | 1010.8 |
| 20260906053038 | 85 | 211 | 2.0 | 6.0 | 0.00 | 0.00 | 0.00 | 69 | 1010.8 |
| 20260906051535 | 85 | 167 | 0.0 | 4.0 | 0.00 | 0.00 | 0.00 | 69 | 1011.0 |
| 20260906050031 | 0 | 0.0 | 0.0 | 0.00 | 0.00 | 0.00 | 1011.0 | ||
| 20260906044528 | 0 | 0.0 | 0.0 | 0.00 | 0.00 | 0.00 | 1010.7 | ||
| 20260906043025 | 0 | 0.0 | 0.0 | 0.00 | 0.00 | 0.00 | 1010.8 | ||
| 20260906041526 | 0 | 0.0 | 0.0 | 0.00 | 0.00 | 0.00 | 1010.7 | ||
| 20260906040025 | 0 | 0.0 | 0.0 | 0.00 | 0.00 | 0.00 | 1010.7 | ||
| 20260906034512 | 0 | 0.0 | 0.0 | 0.00 | 0.00 | 0.00 | 1010.7 | ||
| 20260906033004 | 0 | 0.0 | 0.0 | 0.00 | 0.00 | 0.00 | 1010.7 | ||
| 20260906031625 | 0 | 0.0 | 0.0 | 0.00 | 0.00 | 0.00 | 1010.6 | ||
| 20260906030056 | 0 | 0.0 | 0.0 | 0.00 | 0.00 | 0.00 | 1010.6 | ||
| 20260906024556 | 0 | 0.0 | 0.0 | 0.00 | 0.00 | 0.00 | 1010.4 | ||
| 20260906023105 | 0 | 0.0 | 0.0 | 0.00 | 0.00 | 0.00 | 1010.1 | ||
| 20260906021543 | 0 | 0.0 | 0.0 | 0.00 | 0.00 | 0.00 | 1009.9 | ||
| 20260906020048 | 0 | 0.0 | 0.0 | 0.00 | 0.00 | 0.00 | 1009.6 | ||
| 20260906014534 | 0 | 0.0 | 0.0 | 0.00 | 0.00 | 0.00 | 1009.3 | ||
| 20260906013029 | 0 | 0.0 | 0.0 | 0.00 | 0.00 | 0.00 | 1009.0 | ||
| 20260906011525 | 0 | 0.0 | 0.0 | 0.00 | 0.00 | 0.00 | 1008.7 | ||
| 20260906010022 | 0 | 0.0 | 0.0 | 0.00 | 0.00 | 0.00 | 1008.6 | ||
| 20260906004516 | 0 | 0.0 | 0.0 | 0.00 | 0.00 | 0.00 | 1008.6 | ||
| 20260906003012 | 0 | 0.0 | 0.0 | 0.00 | 0.00 | 0.00 | 1008.6 | ||
| 20260906001508 | 0 | 0.0 | 0.0 | 0.00 | 0.00 | 0.00 | 1008.5 | ||
| 20260906000005 | 99 | 142 | 2.0 | 7.0 | 0.00 | 0.00 | 0.00 | 40 | 1008.4 |
| 20260905234503 | 100 | 88 | 1.0 | 4.0 | 0.00 | 0.00 | 0.00 | 40 | 1008.3 |
| 20260905233003 | 101 | 104 | 1.0 | 3.0 | 0.00 | 0.00 | 0.00 | 40 | 1008.3 |
| 20260905231504 | 100 | 139 | 0.0 | 7.0 | 0.00 | 0.00 | 0.00 | 40 | 1008.3 |
| 20260905230002 | 101 | 157 | 1.0 | 6.0 | 0.00 | 0.00 | 0.00 | 38 | 1008.2 |
| 20260905224501 | 101 | 74 | 1.0 | 5.0 | 0.00 | 0.00 | 0.00 | 38 | 1008.3 |
| 20260905223100 | 100 | 82 | 1.0 | 8.0 | 0.00 | 0.00 | 0.00 | 39 | 1008.2 |
| 20260905221619 | 100 | 193 | 2.0 | 8.0 | 0.00 | 0.00 | 0.00 | 39 | 1008.3 |
| 20260905220057 | 101 | 280 | 1.0 | 7.0 | 0.00 | 0.00 | 0.00 | 38 | 1008.4 |
| 20260905214602 | 100 | 86 | 1.0 | 4.0 | 0.00 | 0.00 | 0.00 | 40 | 1008.6 |
| 20260905213053 | 101 | 220 | 1.0 | 5.0 | 0.00 | 0.00 | 0.00 | 39 | 1008.8 |
| 20260905211550 | 100 | 78 | 2.0 | 9.0 | 0.00 | 0.00 | 0.00 | 41 | 1008.9 |
| 20260905210053 | 97 | 166 | 2.0 | 7.0 | 0.00 | 0.00 | 0.00 | 43 | 1009.1 |
| 20260905204543 | 95 | 157 | 0.0 | 3.0 | 0.00 | 0.00 | 0.00 | 45 | 1009.5 |
| 20260905203016 | 0 | 0.0 | 0.0 | 0.00 | 0.00 | 0.00 | 1009.6 | ||
| 20260905200127 | 0 | 0.0 | 0.0 | 0.00 | 0.00 | 0.00 | 1010.1 | ||
| 20260905194553 | 0 | 0.0 | 0.0 | 0.00 | 0.00 | 0.00 | 1010.3 | ||
| 20260905193048 | 0 | 0.0 | 0.0 | 0.00 | 0.00 | 0.00 | 1010.5 | ||
| 20260905191544 | 0 | 0.0 | 0.0 | 0.00 | 0.00 | 0.00 | 1010.7 | ||
| 20260905190046 | 0 | 0.0 | 0.0 | 0.00 | 0.00 | 0.00 | 1011.0 | ||
| 20260905184536 | 0 | 0.0 | 0.0 | 0.00 | 0.00 | 0.00 | 1011.2 | ||
| 20260905183031 | 0 | 0.0 | 0.0 | 0.00 | 0.00 | 0.00 | 1011.5 | ||
| 20260905181526 | 0 | 0.0 | 0.0 | 0.00 | 0.00 | 0.00 | 1011.5 | ||
| 20260905180029 | 0 | 0.0 | 0.0 | 0.00 | 0.00 | 0.00 | 1011.9 | ||
| 20260905174517 | 95 | 94 | 1.0 | 7.0 | 0.00 | 0.00 | 0.00 | 48 | 1012.0 |
| 20260905173013 | 94 | 205 | 1.0 | 6.0 | 0.00 | 0.00 | 0.00 | 52 | 1012.1 |
| 20260905171515 | 93 | 127 | 5.0 | 10.0 | 0.00 | 0.00 | 0.00 | 50 | 1012.4 |
| 20260905170011 | 93 | 149 | 2.0 | 7.0 | 0.00 | 0.00 | 0.00 | 51 | 1012.5 |
| 20260905164507 | 91 | 195 | 4.0 | 8.0 | 0.00 | 0.00 | 0.00 | 54 | 1012.5 |
| 20260905163002 | 90 | 175 | 4.0 | 8.0 | 0.00 | 0.00 | 0.00 | 55 | 1012.5 |
| 20260905161559 | 89 | 223 | 2.0 | 7.0 | 0.00 | 0.00 | 0.00 | 60 | 1012.6 |
| 20260905160101 | 88 | 290 | 2.0 | 6.0 | 0.00 | 0.00 | 0.00 | 62 | 1012.6 |
| 20260905154600 | 87 | 234 | 2.0 | 8.0 | 0.00 | 0.00 | 0.00 | 63 | 1012.7 |
| 20260905153048 | 86 | 279 | 2.0 | 5.0 | 0.00 | 0.00 | 0.00 | 65 | 1012.6 |
| 20260905151547 | 85 | 261 | 2.0 | 8.0 | 0.00 | 0.00 | 0.00 | 68 | 1012.6 |
| 20260905150046 | 84 | 286 | 1.0 | 7.0 | 0.00 | 0.00 | 0.00 | 70 | 1012.6 |
| 20260905144545 | 84 | 153 | 1.0 | 6.0 | 0.00 | 0.02 | 0.00 | 72 | 1012.4 |
| 20260905143044 | 83 | 165 | 2.0 | 8.0 | 0.00 | 0.02 | 0.00 | 75 | 1012.4 |
| 20260905141542 | 82 | 246 | 2.0 | 8.0 | 0.00 | 0.02 | 0.00 | 76 | 1012.5 |
| 20260905140042 | 81 | 245 | 2.0 | 7.0 | 0.00 | 0.02 | 0.00 | 78 | 1012.4 |
| 20260905134544 | 80 | 176 | 2.0 | 4.0 | 0.00 | 0.08 | 0.00 | 80 | 1012.4 |
| 20260905133046 | 79 | 176 | 0.0 | 0.0 | 0.00 | 0.08 | 0.00 | 83 | 1012.3 |
| 20260905131539 | 78 | 176 | 0.0 | 0.0 | 0.00 | 0.08 | 0.00 | 84 | 1012.3 |
| 20260905130037 | 77 | 176 | 0.0 | 0.0 | 0.00 | 0.08 | 0.00 | 84 | 1012.1 |
| 20260905124537 | 77 | 176 | 0.0 | 0.0 | 0.00 | 0.08 | 0.00 | 84 | 1012.0 |
| 20260905123034 | 77 | 176 | 0.0 | 3.0 | 0.00 | 0.08 | 0.00 | 84 | 1011.7 |
| 20260905121536 | 77 | 176 | 0.0 | 1.0 | 0.00 | 0.08 | 0.00 | 83 | 1011.7 |
| 20260905120049 | 77 | 176 | 0.0 | 2.0 | 0.00 | 0.08 | 0.00 | 83 | 1011.5 |
| 20260905114531 | 78 | 176 | 0.0 | 2.0 | 0.00 | 0.08 | 0.00 | 82 | 1011.5 |
| 20260905113031 | 78 | 176 | 1.0 | 3.0 | 0.00 | 0.08 | 0.00 | 82 | 1011.5 |
| 20260905111556 | 78 | 176 | 0.0 | 3.0 | 0.00 | 0.08 | 0.00 | 82 | 1011.3 |
| 20260905110028 | 78 | 176 | 0.0 | 2.0 | 0.00 | 0.08 | 0.00 | 81 | 1011.4 |
| 20260905104526 | 78 | 176 | 0.0 | 2.0 | 0.00 | 0.08 | 0.00 | 81 | 1011.4 |
| 20260905103029 | 79 | 176 | 0.0 | 3.0 | 0.00 | 0.08 | 0.00 | 80 | 1011.5 |
| 20260905101524 | 79 | 176 | 1.0 | 4.0 | 0.00 | 0.08 | 0.00 | 80 | 1011.4 |